Regional Weather Roundup
Issued by NWS

Home | Current Version | Previous Version | Text Only | Print | Product List | Glossary Off
Versions: 1 2 3 4 5 6 7 8 9 10 11 12 13 14 15 16 17 18 19 20 21 22 23 24 25 26 27 28 29 30 31 32 33 34 35 36 37 38 39 40 41 42 43 44 45 46 47 48 49 50

000
ASUS43 KMPX 020201
RWRMN
WEATHER ROUNDUP FOR MINNESOTA
NATIONAL WEATHER SERVICE TWIN CITIES/CHANHASSEN MN
900 PM CDT FRI AUG 01 2014


NOTE: "FAIR" INDICATES FEW OR NO CLOUDS BELOW 12,000 FEET WITH NO
SIGNIFICANT WEATHER AND/OR OBSTRUCTIONS TO VISIBILITY. N/A MEANS
CURRENT SKY AND/OR WEATHER CONDITIONS ARE NOT AVAILABLE.

MNZ060>063-068>070-020300-
   Twin Cities Metro

CITY           SKY/WX    TMP DP  RH WIND       PRES   REMARKS
TWIN CITIES    PTCLDY    75  63  66 VRB6      30.06R
ST PAUL        PTCLDY    69  65  86 CALM      30.06R
CRYSTAL        PTCLDY    76  62  62 E3        30.04S
BLAINE         PTCLDY    72  63  73 CALM      30.05S
LAKEVILLE      PTCLDY    72  63  73 CALM      30.06R
EDEN PRAIRIE   CLEAR     75  61  61 CALM      30.05R
SOUTH ST PAUL  PTCLDY    69  61  76 CALM      30.06R
LAKE ELMO      CLOUDY    72  63  73 W5        30.07R
$$
MNZ001>005-007-008-013>017-022>024-027-028-020300-
   Northwest Minnesota

CITY           SKY/WX    TMP DP  RH WIND       PRES   REMARKS
BEMIDJI        CLEAR     68  59  72 CALM      30.08S
HALLOCK        CLEAR     75  64  69 CALM      30.04S
ROSEAU         CLEAR     70  63  78 CALM      30.06R
WARROAD        CLEAR     70  59  68 CALM      30.06S
THIEF RVR FALL CLEAR     72  63  73 CALM      30.07S
CROOKSTON      CLEAR     72  64  78 CALM      30.06S
FOSSTON        CLEAR     66  55  68 CALM      30.09S
DETROIT LAKES  PTCLDY    72  61  68 CALM      30.09S
MOORHEAD       PTCLDY    73  64  73 NE3       30.06S
PARK RAPIDS    CLEAR     72  56  57 N3        30.08S
$$
MNZ006-009>011-018-025>026-020300-
   North Central Minnesota

CITY           SKY/WX    TMP DP  RH WIND       PRES   REMARKS
BAUDETTE       CLEAR     64  54  69 CALM      30.07S
FLAG ISLAND    CLEAR     73  55  53 CALM      30.04S
INTL FALLS     CLEAR     58  56  93 CALM      30.06S
WASKISH        CLEAR     63  54  72 CALM      30.07S
BIG FORK       CLEAR     64  61  88 CALM      30.08R
LONGVILLE      CLEAR     64  63  94 CALM      30.08R FOG
GRAND RAPIDS   CLEAR     64  59  82 CALM      30.07S
CRANE LAKE     CLEAR     57  55  94 CALM      30.09R
ORR            CLEAR     61  48  63 CALM      30.06R
COOK           CLEAR     63  55  77 CALM      30.08R
$$
MNZ012-019>021-037-020300-
   Northeast Minnesota

CITY           SKY/WX    TMP DP  RH WIND       PRES   REMARKS
DULUTH         CLEAR     60  51  72 E5        30.08S
ELY            CLEAR     63  54  72 CALM      30.08S
HIBBING        PTCLDY    63  58  83 MISG      30.07S
EVELETH        PTCLDY    63  59  88 CALM      30.09S
DULUTH HARBOR  CLEAR     59  54  82 NE5       30.09R
TWO HARBORS    CLEAR     59  54  82 CALM      30.07R
SILVER BAY     CLEAR     55  55 100 CALM      30.07S
GRAND MARAIS     N/A     56  52  86 CALM      30.09R
G MARAIS ARPRT CLEAR     55  50  82 CALM      30.12S
$$
MNZ029>031-032-039>041-046>048-054>057-064-020300-
   West Central Minnesota

CITY           SKY/WX    TMP DP  RH WIND       PRES   REMARKS
FERGUS FALLS   MOCLDY    73  54  49 CALM      30.05F
WHEATON        PTCLDY    72  63  73 CALM      30.07S
MORRIS         PTCLDY    72  63  73 CALM      30.06S
ALEXANDRIA     PTCLDY    74  64  71 CALM      30.09S
ELBOW LAKE     FAIR      72  61  69 N3        30.06S
WADENA         PTCLDY    66  61  82 CALM      30.07S
GLENWOOD       PTCLDY    72  63  73 CALM      30.08S
APPLETON       PTCLDY    73  64  73 NE3       30.05F
BENSON         PTCLDY    72  64  78 CALM      30.06S
ORTONVILLE     PTCLDY    73  63  68 E5        30.06S
MADISON        PTCLDY    79  61  53 CALM      30.06S
WILLMAR        FAIR      73  61  64 NE3       30.08S
$$
MNZ033>034-036-042>043-049>051-058-059-020300-
   Central Minnesota

CITY           SKY/WX    TMP DP  RH WIND       PRES   REMARKS
ST CLOUD       CLEAR     72  61  68 CALM      30.05S
SAUK CENTRE    FAIR      71  62  72 CALM      30.07S
PAYNESVILLE    RAIN      65  64  96 CALM      30.07S
AITKIN         CLEAR     64  59  82 CALM      30.06S
PINE RIVER     CLEAR     66  61  82 CALM      30.11R
BRAINERD       CLEAR     70  63  78 CALM      30.07S
STAPLES        CLEAR     70  57  64 CALM      30.07S
LONG PRAIRIE   FAIR      66  61  82 CALM      30.07S
LITTLE FALLS   CLEAR     64  61  88 CALM      30.06S
LITCHFIELD     CLEAR     73  66  78 CALM      30.07S
BUFFALO        CLEAR     72  65  80 CALM      30.06S
MAPLE LAKE     CLEAR     71  65  83 CALM      30.07R
$$
MNZ037-044-045-052-053-020300-
   East Central Minnesota

CITY           SKY/WX    TMP DP  RH WIND       PRES   REMARKS
PRINCETON      CLEAR     70  64  83 CALM      30.06R
MORA           CLEAR     68  63  83 CALM      30.07S
CAMBRIDGE      CLEAR     72  63  73 CALM      30.04S
RUSH CITY      CLEAR     68  63  86 CALM      30.06R
MOOSE LAKE     PTCLDY    66  59  77 NE5       30.06R
HINCKLEY       FAIR      68  66  94 CALM      30.06R
CLOQUET        CLEAR     63  54  72 E5        30.08R
MCGREGOR       CLEAR     70  59  68 CALM      30.07R
$$
MNZ071>073-080-081-089-090-097-098-020300-
   Southwest Minnesota

CITY           SKY/WX    TMP DP  RH WIND       PRES   REMARKS
MONTEVIDEO     PTCLDY    73  63  68 CALM      30.07S
GRANITE FALLS  PTCLDY    72  65  77 CALM      30.08S
CANBY          PTCLDY    73  64  72 CALM      30.07F
MARSHALL       PTCLDY    75  61  60 CALM      30.06F
REDWOOD FALLS  PTCLDY    74  64  71 E3        30.06S
OLIVIA         PTCLDY    73  64  73 CALM      30.06S
PIPESTONE      PTCLDY    75  61  60 CALM      30.10S
WINDOM         CLEAR     72  63  73 CALM      30.10R
WORTHINGTON    CLEAR     72  61  68 E3        30.11S
JACKSON        CLEAR     68  63  83 CALM      30.11R
TRACY          PTCLDY    72  62  72 CALM      30.08F
SLAYTON        CLEAR     71  62  72 CALM      30.11S
$$
MNZ065>067-074>077-082>085-091>093-020300-
   South Central Minnesota

CITY           SKY/WX    TMP DP  RH WIND       PRES   REMARKS
MANKATO        PTCLDY    75  59  57 CALM      30.07R
NEW ULM        CLEAR     72  64  78 CALM      30.07R
ST JAMES       CLEAR     72  64  78 CALM      30.09R
FAIRMONT       CLEAR     72  52  49 CALM      30.09R
GLENCOE        PTCLDY    74  61  63 CALM      30.06S
FARIBAULT      PTCLDY    70  63  78 CALM      30.07S
OWATONNA       CLEAR     66  61  82 CALM      30.08S
WASECA         PTCLDY    64  59  82 CALM      30.09R
ALBERT LEA     CLEAR     70  61  73 CALM      30.09R
$$
MNZ078>079-086>088-094>096-020300-
   Southeast Minnesota

CITY           SKY/WX    TMP DP  RH WIND       PRES   REMARKS
ROCHESTER      CLEAR     71  60  68 CALM      30.10R
RED WING       CLEAR     70  66  88 CALM      30.05S
STANTON        PTCLDY    75  63  66 S3        30.05R
DODGE CENTER   CLEAR     68  64  88 CALM      30.10R
WINONA         CLEAR     72  63  73 CALM      30.07R
AUSTIN         CLEAR     70  61  73 CALM      30.09R
PRESTON        CLEAR     71  66  82 CALM      30.09S
$$
ABBREVIATIONS USED IN REMARKS
   TC - TEMPERATURES IN CELSIUS
  WCI - WIND CHILL INDEX
   HX - HEAT INDEX
  VSB - VISIBILITY
$$



USA.gov is the U.S. government's official web portal to all federal, state and local government web resources and services.